locationName,lineName,date,time,countIn,countOut
�n����ʂ�,3_1_2,2022/9/1,0:00,0,1
�n����ʂ�,3_1_2,2022/9/1,1:00,0,0
�n����ʂ�,3_1_2,2022/9/1,2:00,0,0
�n����ʂ�,3_1_2,2022/9/1,3:00,1,0
�n����ʂ�,3_1_2,2022/9/1,4:00,0,0
�n����ʂ�,3_1_2,2022/9/1,5:00,7,7
�n����ʂ�,3_1_2,2022/9/1,6:00,17,6
�n����ʂ�,3_1_2,2022/9/1,7:00,31,36
�n����ʂ�,3_1_2,2022/9/1,8:00,41,44
�n����ʂ�,3_1_2,2022/9/1,9:00,30,62
�n����ʂ�,3_1_2,2022/9/1,10:00,25,34
�n����ʂ�,3_1_2,2022/9/1,11:00,26,37
�n����ʂ�,3_1_2,2022/9/1,12:00,56,70
�n����ʂ�,3_1_2,2022/9/1,13:00,43,72
�n����ʂ�,3_1_2,2022/9/1,14:00,28,46
�n����ʂ�,3_1_2,2022/9/1,15:00,24,41
�n����ʂ�,3_1_2,2022/9/1,16:00,35,62
�n����ʂ�,3_1_2,2022/9/1,17:00,73,51
�n����ʂ�,3_1_2,2022/9/1,18:00,29,54
�n����ʂ�,3_1_2,2022/9/1,19:00,23,19
�n����ʂ�,3_1_2,2022/9/1,20:00,22,5
�n����ʂ�,3_1_2,2022/9/1,21:00,8,7
�n����ʂ�,3_1_2,2022/9/1,22:00,1,1
�n����ʂ�,3_1_2,2022/9/1,23:00,1,1
�n����ʂ�,3_1_2,2022/9/2,0:00,0,1
�n����ʂ�,3_1_2,2022/9/2,1:00,0,0
�n����ʂ�,3_1_2,2022/9/2,2:00,0,0
�n����ʂ�,3_1_2,2022/9/2,3:00,0,1
�n����ʂ�,3_1_2,2022/9/2,4:00,0,1
�n����ʂ�,3_1_2,2022/9/2,5:00,5,3
�n����ʂ�,3_1_2,2022/9/2,6:00,19,10
�n����ʂ�,3_1_2,2022/9/2,7:00,36,26
�n����ʂ�,3_1_2,2022/9/2,8:00,51,50
�n����ʂ�,3_1_2,2022/9/2,9:00,24,55
�n����ʂ�,3_1_2,2022/9/2,10:00,43,36
�n����ʂ�,3_1_2,2022/9/2,11:00,44,87
�n����ʂ�,3_1_2,2022/9/2,12:00,60,88
�n����ʂ�,3_1_2,2022/9/2,13:00,42,65
�n����ʂ�,3_1_2,2022/9/2,14:00,52,74
�n����ʂ�,3_1_2,2022/9/2,15:00,68,54
�n����ʂ�,3_1_2,2022/9/2,16:00,44,76
�n����ʂ�,3_1_2,2022/9/2,17:00,80,54
�n����ʂ�,3_1_2,2022/9/2,18:00,36,67
�n����ʂ�,3_1_2,2022/9/2,19:00,30,21
�n����ʂ�,3_1_2,2022/9/2,20:00,17,14
�n����ʂ�,3_1_2,2022/9/2,21:00,18,23
�n����ʂ�,3_1_2,2022/9/2,22:00,3,0
�n����ʂ�,3_1_2,2022/9/2,23:00,2,4
�n����ʂ�,3_1_2,2022/9/3,0:00,0,1
�n����ʂ�,3_1_2,2022/9/3,1:00,0,0
�n����ʂ�,3_1_2,2022/9/3,2:00,1,0
�n����ʂ�,3_1_2,2022/9/3,3:00,0,0
�n����ʂ�,3_1_2,2022/9/3,4:00,1,0
�n����ʂ�,3_1_2,2022/9/3,5:00,4,6
�n����ʂ�,3_1_2,2022/9/3,6:00,9,13
�n����ʂ�,3_1_2,2022/9/3,7:00,15,14
�n����ʂ�,3_1_2,2022/9/3,8:00,22,37
�n����ʂ�,3_1_2,2022/9/3,9:00,33,36
�n����ʂ�,3_1_2,2022/9/3,10:00,47,54
�n����ʂ�,3_1_2,2022/9/3,11:00,76,82
�n����ʂ�,3_1_2,2022/9/3,12:00,92,100
�n����ʂ�,3_1_2,2022/9/3,13:00,51,85
�n����ʂ�,3_1_2,2022/9/3,14:00,83,76
�n����ʂ�,3_1_2,2022/9/3,15:00,80,91
�n����ʂ�,3_1_2,2022/9/3,16:00,57,82
�n����ʂ�,3_1_2,2022/9/3,17:00,39,88
�n����ʂ�,3_1_2,2022/9/3,18:00,40,43
�n����ʂ�,3_1_2,2022/9/3,19:00,38,29
�n����ʂ�,3_1_2,2022/9/3,20:00,29,21
�n����ʂ�,3_1_2,2022/9/3,21:00,23,13
�n����ʂ�,3_1_2,2022/9/3,22:00,6,7
�n����ʂ�,3_1_2,2022/9/3,23:00,0,0
�n����ʂ�,3_1_2,2022/9/4,0:00,1,0
�n����ʂ�,3_1_2,2022/9/4,1:00,0,0
�n����ʂ�,3_1_2,2022/9/4,2:00,0,0
�n����ʂ�,3_1_2,2022/9/4,3:00,0,1
�n����ʂ�,3_1_2,2022/9/4,4:00,0,0
�n����ʂ�,3_1_2,2022/9/4,5:00,3,9
�n����ʂ�,3_1_2,2022/9/4,6:00,8,11
�n����ʂ�,3_1_2,2022/9/4,7:00,14,22
�n����ʂ�,3_1_2,2022/9/4,8:00,10,25
�n����ʂ�,3_1_2,2022/9/4,9:00,20,28
�n����ʂ�,3_1_2,2022/9/4,10:00,38,48
�n����ʂ�,3_1_2,2022/9/4,11:00,68,62
�n����ʂ�,3_1_2,2022/9/4,12:00,71,107
�n����ʂ�,3_1_2,2022/9/4,13:00,76,131
�n����ʂ�,3_1_2,2022/9/4,14:00,68,87
�n����ʂ�,3_1_2,2022/9/4,15:00,61,87
�n����ʂ�,3_1_2,2022/9/4,16:00,69,69
�n����ʂ�,3_1_2,2022/9/4,17:00,30,50
�n����ʂ�,3_1_2,2022/9/4,18:00,38,47
�n����ʂ�,3_1_2,2022/9/4,19:00,25,35
�n����ʂ�,3_1_2,2022/9/4,20:00,15,13
�n����ʂ�,3_1_2,2022/9/4,21:00,1,7
�n����ʂ�,3_1_2,2022/9/4,22:00,3,2
�n����ʂ�,3_1_2,2022/9/4,23:00,1,3
�n����ʂ�,3_1_2,2022/9/5,0:00,1,0
�n����ʂ�,3_1_2,2022/9/5,1:00,1,0
�n����ʂ�,3_1_2,2022/9/5,2:00,0,0
�n����ʂ�,3_1_2,2022/9/5,3:00,0,0
�n����ʂ�,3_1_2,2022/9/5,4:00,0,0
�n����ʂ�,3_1_2,2022/9/5,5:00,6,8
�n����ʂ�,3_1_2,2022/9/5,6:00,19,17
�n����ʂ�,3_1_2,2022/9/5,7:00,61,44
�n����ʂ�,3_1_2,2022/9/5,8:00,56,66
�n����ʂ�,3_1_2,2022/9/5,9:00,47,58
�n����ʂ�,3_1_2,2022/9/5,10:00,50,50
�n����ʂ�,3_1_2,2022/9/5,11:00,70,66
�n����ʂ�,3_1_2,2022/9/5,12:00,59,94
�n����ʂ�,3_1_2,2022/9/5,13:00,48,89
�n����ʂ�,3_1_2,2022/9/5,14:00,58,82
�n����ʂ�,3_1_2,2022/9/5,15:00,40,54
�n����ʂ�,3_1_2,2022/9/5,16:00,49,48
�n����ʂ�,3_1_2,2022/9/5,17:00,84,65
�n����ʂ�,3_1_2,2022/9/5,18:00,59,82
�n����ʂ�,3_1_2,2022/9/5,19:00,26,35
�n����ʂ�,3_1_2,2022/9/5,20:00,17,21
�n����ʂ�,3_1_2,2022/9/5,21:00,4,13
�n����ʂ�,3_1_2,2022/9/5,22:00,0,1
�n����ʂ�,3_1_2,2022/9/5,23:00,3,0
�n����ʂ�,3_1_2,2022/9/6,0:00,1,0
�n����ʂ�,3_1_2,2022/9/6,1:00,1,1
�n����ʂ�,3_1_2,2022/9/6,2:00,0,0
�n����ʂ�,3_1_2,2022/9/6,3:00,0,0
�n����ʂ�,3_1_2,2022/9/6,4:00,0,2
�n����ʂ�,3_1_2,2022/9/6,5:00,6,2
�n����ʂ�,3_1_2,2022/9/6,6:00,12,7
�n����ʂ�,3_1_2,2022/9/6,7:00,34,31
�n����ʂ�,3_1_2,2022/9/6,8:00,39,39
�n����ʂ�,3_1_2,2022/9/6,9:00,24,41
�n����ʂ�,3_1_2,2022/9/6,10:00,30,53
�n����ʂ�,3_1_2,2022/9/6,11:00,41,61
�n����ʂ�,3_1_2,2022/9/6,12:00,48,58
�n����ʂ�,3_1_2,2022/9/6,13:00,42,53
�n����ʂ�,3_1_2,2022/9/6,14:00,43,72
�n����ʂ�,3_1_2,2022/9/6,15:00,35,36
�n����ʂ�,3_1_2,2022/9/6,16:00,34,73
�n����ʂ�,3_1_2,2022/9/6,17:00,76,57
�n����ʂ�,3_1_2,2022/9/6,18:00,47,45
�n����ʂ�,3_1_2,2022/9/6,19:00,53,22
�n����ʂ�,3_1_2,2022/9/6,20:00,16,19
�n����ʂ�,3_1_2,2022/9/6,21:00,16,22
�n����ʂ�,3_1_2,2022/9/6,22:00,2,2
�n����ʂ�,3_1_2,2022/9/6,23:00,0,0
�n����ʂ�,3_1_2,2022/9/7,0:00,2,0
�n����ʂ�,3_1_2,2022/9/7,1:00,0,0
�n����ʂ�,3_1_2,2022/9/7,2:00,0,1
�n����ʂ�,3_1_2,2022/9/7,3:00,0,0
�n����ʂ�,3_1_2,2022/9/7,4:00,0,0
�n����ʂ�,3_1_2,2022/9/7,5:00,9,6
�n����ʂ�,3_1_2,2022/9/7,6:00,22,12
�n����ʂ�,3_1_2,2022/9/7,7:00,59,44
�n����ʂ�,3_1_2,2022/9/7,8:00,58,67
�n����ʂ�,3_1_2,2022/9/7,9:00,23,60
�n����ʂ�,3_1_2,2022/9/7,10:00,54,54
�n����ʂ�,3_1_2,2022/9/7,11:00,53,79
�n����ʂ�,3_1_2,2022/9/7,12:00,83,89
�n����ʂ�,3_1_2,2022/9/7,13:00,57,74
�n����ʂ�,3_1_2,2022/9/7,14:00,48,78
�n����ʂ�,3_1_2,2022/9/7,15:00,57,61
�n����ʂ�,3_1_2,2022/9/7,16:00,39,64
�n����ʂ�,3_1_2,2022/9/7,17:00,56,66
�n����ʂ�,3_1_2,2022/9/7,18:00,51,71
�n����ʂ�,3_1_2,2022/9/7,19:00,31,23
�n����ʂ�,3_1_2,2022/9/7,20:00,25,15
�n����ʂ�,3_1_2,2022/9/7,21:00,18,17
�n����ʂ�,3_1_2,2022/9/7,22:00,2,1
�n����ʂ�,3_1_2,2022/9/7,23:00,3,0
�n����ʂ�,3_1_2,2022/9/8,0:00,1,1
�n����ʂ�,3_1_2,2022/9/8,1:00,1,1
�n����ʂ�,3_1_2,2022/9/8,2:00,0,0
�n����ʂ�,3_1_2,2022/9/8,3:00,0,1
�n����ʂ�,3_1_2,2022/9/8,4:00,0,0
�n����ʂ�,3_1_2,2022/9/8,5:00,5,7
�n����ʂ�,3_1_2,2022/9/8,6:00,20,7
�n����ʂ�,3_1_2,2022/9/8,7:00,63,48
�n����ʂ�,3_1_2,2022/9/8,8:00,51,63
�n����ʂ�,3_1_2,2022/9/8,9:00,40,58
�n����ʂ�,3_1_2,2022/9/8,10:00,38,47
�n����ʂ�,3_1_2,2022/9/8,11:00,50,61
�n����ʂ�,3_1_2,2022/9/8,12:00,52,76
�n����ʂ�,3_1_2,2022/9/8,13:00,58,93
�n����ʂ�,3_1_2,2022/9/8,14:00,67,78
�n����ʂ�,3_1_2,2022/9/8,15:00,38,60
�n����ʂ�,3_1_2,2022/9/8,16:00,40,71
�n����ʂ�,3_1_2,2022/9/8,17:00,72,81
�n����ʂ�,3_1_2,2022/9/8,18:00,40,67
�n����ʂ�,3_1_2,2022/9/8,19:00,27,11
�n����ʂ�,3_1_2,2022/9/8,20:00,12,23
�n����ʂ�,3_1_2,2022/9/8,21:00,8,11
�n����ʂ�,3_1_2,2022/9/8,22:00,0,0
�n����ʂ�,3_1_2,2022/9/8,23:00,2,2
�n����ʂ�,3_1_2,2022/9/9,0:00,0,0
�n����ʂ�,3_1_2,2022/9/9,1:00,0,0
�n����ʂ�,3_1_2,2022/9/9,2:00,0,0
�n����ʂ�,3_1_2,2022/9/9,3:00,0,0
�n����ʂ�,3_1_2,2022/9/9,4:00,1,0
�n����ʂ�,3_1_2,2022/9/9,5:00,6,10
�n����ʂ�,3_1_2,2022/9/9,6:00,14,11
�n����ʂ�,3_1_2,2022/9/9,7:00,25,19
�n����ʂ�,3_1_2,2022/9/9,8:00,0,0
�n����ʂ�,3_1_2,2022/9/9,9:00,0,0
�n����ʂ�,3_1_2,2022/9/9,10:00,0,0
�n����ʂ�,3_1_2,2022/9/9,11:00,0,0
�n����ʂ�,3_1_2,2022/9/9,12:00,0,0
�n����ʂ�,3_1_2,2022/9/9,13:00,0,0
�n����ʂ�,3_1_2,2022/9/9,14:00,0,0
�n����ʂ�,3_1_2,2022/9/9,15:00,0,0
�n����ʂ�,3_1_2,2022/9/9,16:00,0,0
�n����ʂ�,3_1_2,2022/9/9,17:00,0,0
�n����ʂ�,3_1_2,2022/9/9,18:00,0,0
�n����ʂ�,3_1_2,2022/9/9,19:00,0,0
�n����ʂ�,3_1_2,2022/9/9,20:00,0,0
�n����ʂ�,3_1_2,2022/9/9,21:00,0,0
�n����ʂ�,3_1_2,2022/9/9,22:00,0,0
�n����ʂ�,3_1_2,2022/9/9,23:00,0,0
�n����ʂ�,3_1_2,2022/9/10,0:00,0,0
�n����ʂ�,3_1_2,2022/9/10,1:00,0,0
�n����ʂ�,3_1_2,2022/9/10,2:00,0,0
�n����ʂ�,3_1_2,2022/9/10,3:00,0,0
�n����ʂ�,3_1_2,2022/9/10,4:00,0,0
�n����ʂ�,3_1_2,2022/9/10,5:00,0,0
�n����ʂ�,3_1_2,2022/9/10,6:00,0,0
�n����ʂ�,3_1_2,2022/9/10,7:00,0,0
�n����ʂ�,3_1_2,2022/9/10,8:00,0,0
�n����ʂ�,3_1_2,2022/9/10,9:00,0,0
�n����ʂ�,3_1_2,2022/9/10,10:00,0,0
�n����ʂ�,3_1_2,2022/9/10,11:00,0,0
�n����ʂ�,3_1_2,2022/9/10,12:00,0,0
�n����ʂ�,3_1_2,2022/9/10,13:00,0,0
�n����ʂ�,3_1_2,2022/9/10,14:00,0,0
�n����ʂ�,3_1_2,2022/9/10,15:00,0,0
�n����ʂ�,3_1_2,2022/9/10,16:00,0,0
�n����ʂ�,3_1_2,2022/9/10,17:00,0,0
�n����ʂ�,3_1_2,2022/9/10,18:00,0,0
�n����ʂ�,3_1_2,2022/9/10,19:00,0,0
�n����ʂ�,3_1_2,2022/9/10,20:00,0,0
�n����ʂ�,3_1_2,2022/9/10,21:00,0,0
�n����ʂ�,3_1_2,2022/9/10,22:00,0,0
�n����ʂ�,3_1_2,2022/9/10,23:00,0,0
�n����ʂ�,3_1_2,2022/9/11,0:00,0,0
�n����ʂ�,3_1_2,2022/9/11,1:00,0,0
�n����ʂ�,3_1_2,2022/9/11,2:00,0,0
�n����ʂ�,3_1_2,2022/9/11,3:00,0,0
�n����ʂ�,3_1_2,2022/9/11,4:00,0,0
�n����ʂ�,3_1_2,2022/9/11,5:00,0,0
�n����ʂ�,3_1_2,2022/9/11,6:00,0,0
�n����ʂ�,3_1_2,2022/9/11,7:00,0,0
�n����ʂ�,3_1_2,2022/9/11,8:00,0,0
�n����ʂ�,3_1_2,2022/9/11,9:00,0,0
�n����ʂ�,3_1_2,2022/9/11,10:00,0,0
�n����ʂ�,3_1_2,2022/9/11,11:00,0,0
�n����ʂ�,3_1_2,2022/9/11,12:00,0,0
�n����ʂ�,3_1_2,2022/9/11,13:00,0,0
�n����ʂ�,3_1_2,2022/9/11,14:00,0,0
�n����ʂ�,3_1_2,2022/9/11,15:00,0,0
�n����ʂ�,3_1_2,2022/9/11,16:00,0,0
�n����ʂ�,3_1_2,2022/9/11,17:00,0,0
�n����ʂ�,3_1_2,2022/9/11,18:00,0,0
�n����ʂ�,3_1_2,2022/9/11,19:00,0,0
�n����ʂ�,3_1_2,2022/9/11,20:00,0,0
�n����ʂ�,3_1_2,2022/9/11,21:00,0,0
�n����ʂ�,3_1_2,2022/9/11,22:00,0,0
�n����ʂ�,3_1_2,2022/9/11,23:00,0,0
�n����ʂ�,3_1_2,2022/9/12,0:00,0,0
�n����ʂ�,3_1_2,2022/9/12,1:00,0,0
�n����ʂ�,3_1_2,2022/9/12,2:00,0,0
�n����ʂ�,3_1_2,2022/9/12,3:00,0,0
�n����ʂ�,3_1_2,2022/9/12,4:00,0,0
�n����ʂ�,3_1_2,2022/9/12,5:00,0,0
�n����ʂ�,3_1_2,2022/9/12,6:00,0,0
�n����ʂ�,3_1_2,2022/9/12,7:00,0,0
�n����ʂ�,3_1_2,2022/9/12,8:00,0,0
�n����ʂ�,3_1_2,2022/9/12,9:00,0,0
�n����ʂ�,3_1_2,2022/9/12,10:00,0,0
�n����ʂ�,3_1_2,2022/9/12,11:00,0,0
�n����ʂ�,3_1_2,2022/9/12,12:00,79,96
�n����ʂ�,3_1_2,2022/9/12,13:00,82,87
�n����ʂ�,3_1_2,2022/9/12,14:00,44,59
�n����ʂ�,3_1_2,2022/9/12,15:00,43,66
�n����ʂ�,3_1_2,2022/9/12,16:00,62,69
�n����ʂ�,3_1_2,2022/9/12,17:00,79,58
�n����ʂ�,3_1_2,2022/9/12,18:00,50,48
�n����ʂ�,3_1_2,2022/9/12,19:00,26,29
�n����ʂ�,3_1_2,2022/9/12,20:00,22,13
�n����ʂ�,3_1_2,2022/9/12,21:00,6,11
�n����ʂ�,3_1_2,2022/9/12,22:00,3,1
�n����ʂ�,3_1_2,2022/9/12,23:00,3,1
�n����ʂ�,3_1_2,2022/9/13,0:00,4,0
�n����ʂ�,3_1_2,2022/9/13,1:00,0,0
�n����ʂ�,3_1_2,2022/9/13,2:00,0,0
�n����ʂ�,3_1_2,2022/9/13,3:00,0,0
�n����ʂ�,3_1_2,2022/9/13,4:00,0,1
�n����ʂ�,3_1_2,2022/9/13,5:00,6,7
�n����ʂ�,3_1_2,2022/9/13,6:00,14,10
�n����ʂ�,3_1_2,2022/9/13,7:00,61,59
�n����ʂ�,3_1_2,2022/9/13,8:00,65,67
�n����ʂ�,3_1_2,2022/9/13,9:00,22,43
�n����ʂ�,3_1_2,2022/9/13,10:00,33,58
�n����ʂ�,3_1_2,2022/9/13,11:00,47,57
�n����ʂ�,3_1_2,2022/9/13,12:00,70,86
�n����ʂ�,3_1_2,2022/9/13,13:00,80,77
�n����ʂ�,3_1_2,2022/9/13,14:00,60,63
�n����ʂ�,3_1_2,2022/9/13,15:00,61,60
�n����ʂ�,3_1_2,2022/9/13,16:00,56,100
�n����ʂ�,3_1_2,2022/9/13,17:00,73,58
�n����ʂ�,3_1_2,2022/9/13,18:00,54,77
�n����ʂ�,3_1_2,2022/9/13,19:00,33,22
�n����ʂ�,3_1_2,2022/9/13,20:00,21,16
�n����ʂ�,3_1_2,2022/9/13,21:00,12,17
�n����ʂ�,3_1_2,2022/9/13,22:00,29,4
�n����ʂ�,3_1_2,2022/9/13,23:00,0,1
�n����ʂ�,3_1_2,2022/9/14,0:00,0,0
�n����ʂ�,3_1_2,2022/9/14,1:00,0,0
�n����ʂ�,3_1_2,2022/9/14,2:00,1,0
�n����ʂ�,3_1_2,2022/9/14,3:00,0,0
�n����ʂ�,3_1_2,2022/9/14,4:00,0,1
�n����ʂ�,3_1_2,2022/9/14,5:00,6,7
�n����ʂ�,3_1_2,2022/9/14,6:00,16,13
�n����ʂ�,3_1_2,2022/9/14,7:00,58,39
�n����ʂ�,3_1_2,2022/9/14,8:00,64,61
�n����ʂ�,3_1_2,2022/9/14,9:00,42,50
�n����ʂ�,3_1_2,2022/9/14,10:00,39,53
�n����ʂ�,3_1_2,2022/9/14,11:00,42,55
�n����ʂ�,3_1_2,2022/9/14,12:00,63,103
�n����ʂ�,3_1_2,2022/9/14,13:00,62,55
�n����ʂ�,3_1_2,2022/9/14,14:00,53,62
�n����ʂ�,3_1_2,2022/9/14,15:00,44,66
�n����ʂ�,3_1_2,2022/9/14,16:00,54,107
�n����ʂ�,3_1_2,2022/9/14,17:00,72,55
�n����ʂ�,3_1_2,2022/9/14,18:00,65,54
�n����ʂ�,3_1_2,2022/9/14,19:00,20,29
�n����ʂ�,3_1_2,2022/9/14,20:00,12,14
�n����ʂ�,3_1_2,2022/9/14,21:00,16,8
�n����ʂ�,3_1_2,2022/9/14,22:00,2,2
�n����ʂ�,3_1_2,2022/9/14,23:00,1,0
�n����ʂ�,3_1_2,2022/9/15,0:00,1,0
�n����ʂ�,3_1_2,2022/9/15,1:00,1,0
�n����ʂ�,3_1_2,2022/9/15,2:00,1,0
�n����ʂ�,3_1_2,2022/9/15,3:00,2,0
�n����ʂ�,3_1_2,2022/9/15,4:00,0,1
�n����ʂ�,3_1_2,2022/9/15,5:00,4,2
�n����ʂ�,3_1_2,2022/9/15,6:00,29,15
�n����ʂ�,3_1_2,2022/9/15,7:00,62,47
�n����ʂ�,3_1_2,2022/9/15,8:00,55,64
�n����ʂ�,3_1_2,2022/9/15,9:00,32,48
�n����ʂ�,3_1_2,2022/9/15,10:00,50,56
�n����ʂ�,3_1_2,2022/9/15,11:00,62,50
�n����ʂ�,3_1_2,2022/9/15,12:00,54,88
�n����ʂ�,3_1_2,2022/9/15,13:00,48,69
�n����ʂ�,3_1_2,2022/9/15,14:00,42,74
�n����ʂ�,3_1_2,2022/9/15,15:00,54,88
�n����ʂ�,3_1_2,2022/9/15,16:00,57,81
�n����ʂ�,3_1_2,2022/9/15,17:00,71,62
�n����ʂ�,3_1_2,2022/9/15,18:00,36,52
�n����ʂ�,3_1_2,2022/9/15,19:00,20,28
�n����ʂ�,3_1_2,2022/9/15,20:00,21,18
�n����ʂ�,3_1_2,2022/9/15,21:00,10,14
�n����ʂ�,3_1_2,2022/9/15,22:00,0,0
�n����ʂ�,3_1_2,2022/9/15,23:00,2,0
�n����ʂ�,3_1_2,2022/9/16,0:00,0,1
�n����ʂ�,3_1_2,2022/9/16,1:00,0,0
�n����ʂ�,3_1_2,2022/9/16,2:00,0,0
�n����ʂ�,3_1_2,2022/9/16,3:00,0,0
�n����ʂ�,3_1_2,2022/9/16,4:00,0,1
�n����ʂ�,3_1_2,2022/9/16,5:00,6,9
�n����ʂ�,3_1_2,2022/9/16,6:00,12,10
�n����ʂ�,3_1_2,2022/9/16,7:00,56,25
�n����ʂ�,3_1_2,2022/9/16,8:00,59,56
�n����ʂ�,3_1_2,2022/9/16,9:00,32,61
�n����ʂ�,3_1_2,2022/9/16,10:00,42,44
�n����ʂ�,3_1_2,2022/9/16,11:00,68,77
�n����ʂ�,3_1_2,2022/9/16,12:00,87,83
�n����ʂ�,3_1_2,2022/9/16,13:00,57,65
�n����ʂ�,3_1_2,2022/9/16,14:00,46,71
�n����ʂ�,3_1_2,2022/9/16,15:00,47,80
�n����ʂ�,3_1_2,2022/9/16,16:00,54,61
�n����ʂ�,3_1_2,2022/9/16,17:00,94,96
�n����ʂ�,3_1_2,2022/9/16,18:00,52,75
�n����ʂ�,3_1_2,2022/9/16,19:00,42,32
�n����ʂ�,3_1_2,2022/9/16,20:00,28,26
�n����ʂ�,3_1_2,2022/9/16,21:00,30,27
�n����ʂ�,3_1_2,2022/9/16,22:00,2,4
�n����ʂ�,3_1_2,2022/9/16,23:00,2,2
�n����ʂ�,3_1_2,2022/9/17,0:00,0,1
�n����ʂ�,3_1_2,2022/9/17,1:00,0,1
�n����ʂ�,3_1_2,2022/9/17,2:00,0,0
�n����ʂ�,3_1_2,2022/9/17,3:00,0,1
�n����ʂ�,3_1_2,2022/9/17,4:00,0,1
�n����ʂ�,3_1_2,2022/9/17,5:00,4,4
�n����ʂ�,3_1_2,2022/9/17,6:00,13,12
�n����ʂ�,3_1_2,2022/9/17,7:00,22,21
�n����ʂ�,3_1_2,2022/9/17,8:00,17,36
�n����ʂ�,3_1_2,2022/9/17,9:00,38,49
�n����ʂ�,3_1_2,2022/9/17,10:00,58,66
�n����ʂ�,3_1_2,2022/9/17,11:00,93,86
�n����ʂ�,3_1_2,2022/9/17,12:00,125,145
�n����ʂ�,3_1_2,2022/9/17,13:00,105,157
�n����ʂ�,3_1_2,2022/9/17,14:00,95,109
�n����ʂ�,3_1_2,2022/9/17,15:00,93,116
�n����ʂ�,3_1_2,2022/9/17,16:00,78,99
�n����ʂ�,3_1_2,2022/9/17,17:00,66,102
�n����ʂ�,3_1_2,2022/9/17,18:00,70,76
�n����ʂ�,3_1_2,2022/9/17,19:00,30,23
�n����ʂ�,3_1_2,2022/9/17,20:00,30,34
�n����ʂ�,3_1_2,2022/9/17,21:00,17,14
�n����ʂ�,3_1_2,2022/9/17,22:00,2,4
�n����ʂ�,3_1_2,2022/9/17,23:00,2,2
�n����ʂ�,3_1_2,2022/9/18,0:00,1,0
�n����ʂ�,3_1_2,2022/9/18,1:00,1,0
�n����ʂ�,3_1_2,2022/9/18,2:00,0,0
�n����ʂ�,3_1_2,2022/9/18,3:00,0,1
�n����ʂ�,3_1_2,2022/9/18,4:00,0,1
�n����ʂ�,3_1_2,2022/9/18,5:00,3,2
�n����ʂ�,3_1_2,2022/9/18,6:00,3,8
�n����ʂ�,3_1_2,2022/9/18,7:00,7,10
�n����ʂ�,3_1_2,2022/9/18,8:00,11,24
�n����ʂ�,3_1_2,2022/9/18,9:00,21,50
�n����ʂ�,3_1_2,2022/9/18,10:00,44,63
�n����ʂ�,3_1_2,2022/9/18,11:00,69,117
�n����ʂ�,3_1_2,2022/9/18,12:00,112,123
�n����ʂ�,3_1_2,2022/9/18,13:00,117,117
�n����ʂ�,3_1_2,2022/9/18,14:00,66,105
�n����ʂ�,3_1_2,2022/9/18,15:00,68,83
�n����ʂ�,3_1_2,2022/9/18,16:00,27,50
�n����ʂ�,3_1_2,2022/9/18,17:00,23,48
�n����ʂ�,3_1_2,2022/9/18,18:00,22,29
�n����ʂ�,3_1_2,2022/9/18,19:00,7,12
�n����ʂ�,3_1_2,2022/9/18,20:00,5,6
�n����ʂ�,3_1_2,2022/9/18,21:00,0,2
�n����ʂ�,3_1_2,2022/9/18,22:00,0,0
�n����ʂ�,3_1_2,2022/9/18,23:00,0,1
�n����ʂ�,3_1_2,2022/9/19,0:00,0,0
�n����ʂ�,3_1_2,2022/9/19,1:00,0,0
�n����ʂ�,3_1_2,2022/9/19,2:00,3,2
�n����ʂ�,3_1_2,2022/9/19,3:00,0,0
�n����ʂ�,3_1_2,2022/9/19,4:00,0,1
�n����ʂ�,3_1_2,2022/9/19,5:00,0,1
�n����ʂ�,3_1_2,2022/9/19,6:00,2,3
�n����ʂ�,3_1_2,2022/9/19,7:00,3,6
�n����ʂ�,3_1_2,2022/9/19,8:00,7,10
�n����ʂ�,3_1_2,2022/9/19,9:00,3,14
�n����ʂ�,3_1_2,2022/9/19,10:00,9,9
�n����ʂ�,3_1_2,2022/9/19,11:00,8,9
�n����ʂ�,3_1_2,2022/9/19,12:00,4,13
�n����ʂ�,3_1_2,2022/9/19,13:00,9,7
�n����ʂ�,3_1_2,2022/9/19,14:00,5,12
�n����ʂ�,3_1_2,2022/9/19,15:00,7,12
�n����ʂ�,3_1_2,2022/9/19,16:00,8,17
�n����ʂ�,3_1_2,2022/9/19,17:00,4,18
�n����ʂ�,3_1_2,2022/9/19,18:00,12,10
�n����ʂ�,3_1_2,2022/9/19,19:00,10,6
�n����ʂ�,3_1_2,2022/9/19,20:00,2,3
�n����ʂ�,3_1_2,2022/9/19,21:00,1,3
�n����ʂ�,3_1_2,2022/9/19,22:00,0,0
�n����ʂ�,3_1_2,2022/9/19,23:00,1,0
�n����ʂ�,3_1_2,2022/9/20,0:00,2,1
�n����ʂ�,3_1_2,2022/9/20,1:00,0,0
�n����ʂ�,3_1_2,2022/9/20,2:00,0,0
�n����ʂ�,3_1_2,2022/9/20,3:00,0,0
�n����ʂ�,3_1_2,2022/9/20,4:00,0,1
�n����ʂ�,3_1_2,2022/9/20,5:00,3,4
�n����ʂ�,3_1_2,2022/9/20,6:00,14,17
�n����ʂ�,3_1_2,2022/9/20,7:00,58,28
�n����ʂ�,3_1_2,2022/9/20,8:00,50,78
�n����ʂ�,3_1_2,2022/9/20,9:00,33,42
�n����ʂ�,3_1_2,2022/9/20,10:00,35,63
�n����ʂ�,3_1_2,2022/9/20,11:00,64,62
�n����ʂ�,3_1_2,2022/9/20,12:00,71,82
�n����ʂ�,3_1_2,2022/9/20,13:00,37,65
�n����ʂ�,3_1_2,2022/9/20,14:00,53,71
�n����ʂ�,3_1_2,2022/9/20,15:00,54,39
�n����ʂ�,3_1_2,2022/9/20,16:00,51,75
�n����ʂ�,3_1_2,2022/9/20,17:00,85,83
�n����ʂ�,3_1_2,2022/9/20,18:00,62,70
�n����ʂ�,3_1_2,2022/9/20,19:00,53,21
�n����ʂ�,3_1_2,2022/9/20,20:00,10,19
�n����ʂ�,3_1_2,2022/9/20,21:00,19,19
�n����ʂ�,3_1_2,2022/9/20,22:00,0,2
�n����ʂ�,3_1_2,2022/9/20,23:00,2,2
�n����ʂ�,3_1_2,2022/9/21,0:00,0,1
�n����ʂ�,3_1_2,2022/9/21,1:00,0,1
�n����ʂ�,3_1_2,2022/9/21,2:00,0,0
�n����ʂ�,3_1_2,2022/9/21,3:00,1,1
�n����ʂ�,3_1_2,2022/9/21,4:00,0,0
�n����ʂ�,3_1_2,2022/9/21,5:00,6,5
�n����ʂ�,3_1_2,2022/9/21,6:00,16,6
�n����ʂ�,3_1_2,2022/9/21,7:00,59,43
�n����ʂ�,3_1_2,2022/9/21,8:00,60,62
�n����ʂ�,3_1_2,2022/9/21,9:00,26,43
�n����ʂ�,3_1_2,2022/9/21,10:00,38,66
�n����ʂ�,3_1_2,2022/9/21,11:00,49,69
�n����ʂ�,3_1_2,2022/9/21,12:00,68,77
�n����ʂ�,3_1_2,2022/9/21,13:00,57,80
�n����ʂ�,3_1_2,2022/9/21,14:00,70,73
�n����ʂ�,3_1_2,2022/9/21,15:00,60,80
�n����ʂ�,3_1_2,2022/9/21,16:00,47,105
�n����ʂ�,3_1_2,2022/9/21,17:00,67,63
�n����ʂ�,3_1_2,2022/9/21,18:00,48,53
�n����ʂ�,3_1_2,2022/9/21,19:00,29,28
�n����ʂ�,3_1_2,2022/9/21,20:00,35,21
�n����ʂ�,3_1_2,2022/9/21,21:00,23,12
�n����ʂ�,3_1_2,2022/9/21,22:00,4,1
�n����ʂ�,3_1_2,2022/9/21,23:00,0,0
�n����ʂ�,3_1_2,2022/9/22,0:00,0,1
�n����ʂ�,3_1_2,2022/9/22,1:00,0,1
�n����ʂ�,3_1_2,2022/9/22,2:00,0,0
�n����ʂ�,3_1_2,2022/9/22,3:00,0,0
�n����ʂ�,3_1_2,2022/9/22,4:00,0,1
�n����ʂ�,3_1_2,2022/9/22,5:00,6,7
�n����ʂ�,3_1_2,2022/9/22,6:00,16,9
�n����ʂ�,3_1_2,2022/9/22,7:00,66,36
�n����ʂ�,3_1_2,2022/9/22,8:00,46,63
�n����ʂ�,3_1_2,2022/9/22,9:00,33,56
�n����ʂ�,3_1_2,2022/9/22,10:00,43,68
�n����ʂ�,3_1_2,2022/9/22,11:00,53,70
�n����ʂ�,3_1_2,2022/9/22,12:00,87,83
�n����ʂ�,3_1_2,2022/9/22,13:00,69,77
�n����ʂ�,3_1_2,2022/9/22,14:00,68,95
�n����ʂ�,3_1_2,2022/9/22,15:00,54,62
�n����ʂ�,3_1_2,2022/9/22,16:00,67,76
�n����ʂ�,3_1_2,2022/9/22,17:00,69,71
�n����ʂ�,3_1_2,2022/9/22,18:00,70,57
�n����ʂ�,3_1_2,2022/9/22,19:00,34,21
�n����ʂ�,3_1_2,2022/9/22,20:00,27,23
�n����ʂ�,3_1_2,2022/9/22,21:00,32,21
�n����ʂ�,3_1_2,2022/9/22,22:00,7,7
�n����ʂ�,3_1_2,2022/9/22,23:00,2,0
�n����ʂ�,3_1_2,2022/9/23,0:00,0,0
�n����ʂ�,3_1_2,2022/9/23,1:00,0,1
�n����ʂ�,3_1_2,2022/9/23,2:00,0,0
�n����ʂ�,3_1_2,2022/9/23,3:00,0,0
�n����ʂ�,3_1_2,2022/9/23,4:00,0,1
�n����ʂ�,3_1_2,2022/9/23,5:00,2,1
�n����ʂ�,3_1_2,2022/9/23,6:00,13,7
�n����ʂ�,3_1_2,2022/9/23,7:00,15,11
�n����ʂ�,3_1_2,2022/9/23,8:00,11,14
�n����ʂ�,3_1_2,2022/9/23,9:00,30,43
�n����ʂ�,3_1_2,2022/9/23,10:00,64,84
�n����ʂ�,3_1_2,2022/9/23,11:00,96,139
�n����ʂ�,3_1_2,2022/9/23,12:00,142,164
�n����ʂ�,3_1_2,2022/9/23,13:00,163,189
�n����ʂ�,3_1_2,2022/9/23,14:00,145,162
�n����ʂ�,3_1_2,2022/9/23,15:00,135,171
�n����ʂ�,3_1_2,2022/9/23,16:00,105,134
�n����ʂ�,3_1_2,2022/9/23,17:00,76,123
�n����ʂ�,3_1_2,2022/9/23,18:00,54,83
�n����ʂ�,3_1_2,2022/9/23,19:00,27,30
�n����ʂ�,3_1_2,2022/9/23,20:00,25,21
�n����ʂ�,3_1_2,2022/9/23,21:00,22,26
�n����ʂ�,3_1_2,2022/9/23,22:00,4,3
�n����ʂ�,3_1_2,2022/9/23,23:00,1,0
�n����ʂ�,3_1_2,2022/9/24,0:00,3,0
�n����ʂ�,3_1_2,2022/9/24,1:00,0,0
�n����ʂ�,3_1_2,2022/9/24,2:00,0,0
�n����ʂ�,3_1_2,2022/9/24,3:00,0,0
�n����ʂ�,3_1_2,2022/9/24,4:00,0,2
�n����ʂ�,3_1_2,2022/9/24,5:00,4,6
�n����ʂ�,3_1_2,2022/9/24,6:00,20,12
�n����ʂ�,3_1_2,2022/9/24,7:00,13,18
�n����ʂ�,3_1_2,2022/9/24,8:00,23,24
�n����ʂ�,3_1_2,2022/9/24,9:00,48,51
�n����ʂ�,3_1_2,2022/9/24,10:00,74,137
�n����ʂ�,3_1_2,2022/9/24,11:00,128,154
�n����ʂ�,3_1_2,2022/9/24,12:00,148,181
�n����ʂ�,3_1_2,2022/9/24,13:00,163,175
�n����ʂ�,3_1_2,2022/9/24,14:00,176,179
�n����ʂ�,3_1_2,2022/9/24,15:00,129,172
�n����ʂ�,3_1_2,2022/9/24,16:00,74,154
�n����ʂ�,3_1_2,2022/9/24,17:00,89,148
�n����ʂ�,3_1_2,2022/9/24,18:00,95,103
�n����ʂ�,3_1_2,2022/9/24,19:00,52,73
�n����ʂ�,3_1_2,2022/9/24,20:00,39,35
�n����ʂ�,3_1_2,2022/9/24,21:00,34,35
�n����ʂ�,3_1_2,2022/9/24,22:00,12,10
�n����ʂ�,3_1_2,2022/9/24,23:00,2,0
�n����ʂ�,3_1_2,2022/9/25,0:00,1,0
�n����ʂ�,3_1_2,2022/9/25,1:00,0,0
�n����ʂ�,3_1_2,2022/9/25,2:00,0,0
�n����ʂ�,3_1_2,2022/9/25,3:00,1,0
�n����ʂ�,3_1_2,2022/9/25,4:00,0,0
�n����ʂ�,3_1_2,2022/9/25,5:00,5,4
�n����ʂ�,3_1_2,2022/9/25,6:00,8,5
�n����ʂ�,3_1_2,2022/9/25,7:00,9,23
�n����ʂ�,3_1_2,2022/9/25,8:00,15,22
�n����ʂ�,3_1_2,2022/9/25,9:00,39,37
�n����ʂ�,3_1_2,2022/9/25,10:00,93,109
�n����ʂ�,3_1_2,2022/9/25,11:00,119,145
�n����ʂ�,3_1_2,2022/9/25,12:00,147,204
�n����ʂ�,3_1_2,2022/9/25,13:00,150,169
�n����ʂ�,3_1_2,2022/9/25,14:00,122,133
�n����ʂ�,3_1_2,2022/9/25,15:00,104,102
�n����ʂ�,3_1_2,2022/9/25,16:00,82,137
�n����ʂ�,3_1_2,2022/9/25,17:00,66,109
�n����ʂ�,3_1_2,2022/9/25,18:00,58,64
�n����ʂ�,3_1_2,2022/9/25,19:00,31,25
�n����ʂ�,3_1_2,2022/9/25,20:00,10,21
�n����ʂ�,3_1_2,2022/9/25,21:00,10,13
�n����ʂ�,3_1_2,2022/9/25,22:00,0,2
�n����ʂ�,3_1_2,2022/9/25,23:00,3,2
�n����ʂ�,3_1_2,2022/9/26,0:00,0,0
�n����ʂ�,3_1_2,2022/9/26,1:00,1,0
�n����ʂ�,3_1_2,2022/9/26,2:00,1,0
�n����ʂ�,3_1_2,2022/9/26,3:00,2,1
�n����ʂ�,3_1_2,2022/9/26,4:00,0,0
�n����ʂ�,3_1_2,2022/9/26,5:00,6,6
�n����ʂ�,3_1_2,2022/9/26,6:00,15,12
�n����ʂ�,3_1_2,2022/9/26,7:00,59,38
�n����ʂ�,3_1_2,2022/9/26,8:00,48,58
�n����ʂ�,3_1_2,2022/9/26,9:00,41,58
�n����ʂ�,3_1_2,2022/9/26,10:00,45,52
�n����ʂ�,3_1_2,2022/9/26,11:00,80,78
�n����ʂ�,3_1_2,2022/9/26,12:00,100,105
�n����ʂ�,3_1_2,2022/9/26,13:00,59,90
�n����ʂ�,3_1_2,2022/9/26,14:00,61,90
�n����ʂ�,3_1_2,2022/9/26,15:00,42,58
�n����ʂ�,3_1_2,2022/9/26,16:00,61,70
�n����ʂ�,3_1_2,2022/9/26,17:00,80,82
�n����ʂ�,3_1_2,2022/9/26,18:00,50,55
�n����ʂ�,3_1_2,2022/9/26,19:00,40,19
�n����ʂ�,3_1_2,2022/9/26,20:00,13,16
�n����ʂ�,3_1_2,2022/9/26,21:00,14,5
�n����ʂ�,3_1_2,2022/9/26,22:00,4,5
�n����ʂ�,3_1_2,2022/9/26,23:00,1,0
�n����ʂ�,3_1_2,2022/9/27,0:00,1,0
�n����ʂ�,3_1_2,2022/9/27,1:00,0,0
�n����ʂ�,3_1_2,2022/9/27,2:00,1,0
�n����ʂ�,3_1_2,2022/9/27,3:00,0,0
�n����ʂ�,3_1_2,2022/9/27,4:00,1,1
�n����ʂ�,3_1_2,2022/9/27,5:00,2,8
�n����ʂ�,3_1_2,2022/9/27,6:00,13,11
�n����ʂ�,3_1_2,2022/9/27,7:00,43,29
�n����ʂ�,3_1_2,2022/9/27,8:00,48,54
�n����ʂ�,3_1_2,2022/9/27,9:00,24,43
�n����ʂ�,3_1_2,2022/9/27,10:00,38,43
�n����ʂ�,3_1_2,2022/9/27,11:00,39,56
�n����ʂ�,3_1_2,2022/9/27,12:00,58,53
�n����ʂ�,3_1_2,2022/9/27,13:00,39,57
�n����ʂ�,3_1_2,2022/9/27,14:00,40,57
�n����ʂ�,3_1_2,2022/9/27,15:00,38,51
�n����ʂ�,3_1_2,2022/9/27,16:00,39,97
�n����ʂ�,3_1_2,2022/9/27,17:00,61,75
�n����ʂ�,3_1_2,2022/9/27,18:00,48,43
�n����ʂ�,3_1_2,2022/9/27,19:00,32,13
�n����ʂ�,3_1_2,2022/9/27,20:00,22,14
�n����ʂ�,3_1_2,2022/9/27,21:00,3,3
�n����ʂ�,3_1_2,2022/9/27,22:00,0,0
�n����ʂ�,3_1_2,2022/9/27,23:00,1,0
�n����ʂ�,3_1_2,2022/9/28,0:00,1,1
�n����ʂ�,3_1_2,2022/9/28,1:00,0,0
�n����ʂ�,3_1_2,2022/9/28,2:00,0,0
�n����ʂ�,3_1_2,2022/9/28,3:00,0,0
�n����ʂ�,3_1_2,2022/9/28,4:00,0,1
�n����ʂ�,3_1_2,2022/9/28,5:00,9,5
�n����ʂ�,3_1_2,2022/9/28,6:00,16,11
�n����ʂ�,3_1_2,2022/9/28,7:00,71,33
�n����ʂ�,3_1_2,2022/9/28,8:00,49,56